Location: ???????????
(55.5758°N, 38.4970°E)
Time: 18:01:47
(UTC+00:00)

Cosmos 2084 - Pass Details

Date: 15 November 2025
Orbit: 529 x 573 km, 62.8° (Epoch: 14 December)

Event Time Altitude Azimuth Distance (km) Brightness Sun altitude
Exits shadow 01:54:00 43° 38° (NE) 780 4.3 -26.0°
Drops below altitude 10° 01:57:33 10° 96° (E) 1,802 6.9 -25.5°
Sets 01:59:49 0° 103° (ESE) 2,685 8.0 -25.1°
